Home   Weather   Canberra   Past weeks
Flag for Australia

Past Weather in Canberra, Australian Capital Territory, Australia — Yesterday and Last 2 Weeks

Now
91 °F

Thunderstorms. Broken clouds.


Feels Like: 92 °F
Forecast: 85 / 63 °F
Wind: 18 mph from East

Location: Canberra Airport

Current Time: Jan 23, 2019 at 2:18:41 pm

Latest Report: Jan 23, 2019 at 1:56 pm


Visibility: N/A

Pressure: 29.89 "Hg (28.03 "Hg at 577m altitude)

Humidity: 38%

Dew Point: 63 °F

Location of CanberraLocation

Past Weather in Canberra — Graph

°F

Canberra Temperature Yesterday

Maximum temperature yesterday: 100 °F (at 4:30 pm)
Minimum temperature yesterday: 63 °F (at 6:30 am)
Average temperature yesterday: 80 °F

High & Low Weather Summary for the Past Weeks

 TemperatureHumidityPressure
High106 °F (Jan 16, 3:30 pm)100% (Jan 9, 12:00 am)30.21 "Hg (Jan 9, 12:00 am)
Low57 °F (Jan 9, 5:00 am)9% (Jan 16, 3:00 pm)29.77 "Hg (Jan 17, 5:30 pm)
Average77 °F59%30.01 "Hg
* Reported Jan 8 1:00 pm — Jan 23 1:00 pm, Canberra. Weather by CustomWeather, © 2019

Note: Actual official high and low records may vary slightly from our data, if they occured in-between our weather recording intervals... More about our weather records

Advertising

Canberra Weather History for the Previous 24 Hours

Scroll right to see more
 ConditionsComfort  
Time TempWeatherWind HumidityBarometerVisibility
1:00 pm
Wed, Jan 23
93 °FSunny.3 mph30%29.92 "HgN/A
12:00 pm91 °FSunny.6 mph32%29.95 "HgN/A
11:30 am90 °FSunny.7 mph36%29.95 "HgN/A
11:00 am88 °FSunny.7 mph40%29.95 "HgN/A
10:30 am86 °FSunny.2 mph46%29.95 "HgN/A
10:00 am82 °FSunny.3 mph51%29.95 "HgN/A
9:30 am81 °FSunny.3 mph58%29.95 "HgN/A
9:00 am79 °FSunny.3 mph61%29.95 "HgN/A
8:30 am77 °FSunny.2 mph61%29.98 "HgN/A
7:30 am72 °FSunny.No wind78%29.95 "HgN/A
7:00 am70 °FSunny.5 mph83%29.95 "HgN/A
6:30 am68 °FSunny.2 mph88%29.95 "HgN/A
6:00 am68 °FClear.2 mph88%29.92 "HgN/A
5:30 am70 °FClear.1 mph83%29.92 "HgN/A
5:00 am70 °FClear.6 mph83%29.92 "HgN/A
4:30 am72 °FClear.No wind83%29.92 "HgN/A
4:00 am70 °FClear.5 mph83%29.89 "HgN/A
3:30 am72 °FClear.5 mph83%29.89 "HgN/A
3:00 am72 °FClear.8 mph83%29.92 "HgN/A
2:30 am72 °FClear.7 mph88%29.92 "HgN/A
2:00 am72 °FPassing clouds.6 mph83%29.95 "HgN/A
1:30 am73 °FOvercast.6 mph83%29.95 "HgN/A
1:00 am72 °FPassing clouds.No wind83%29.92 "HgN/A
12:30 am73 °FThundershowers. Passing clouds.6 mph74%29.92 "HgN/A
12:21 am73 °FThundershowers. Passing clouds.6 mph78%29.92 "HgN/A
11:42 pm
Tue, Jan 22
73 °FThunderstorms. Passing clouds.7 mph83%29.92 "HgN/A
11:30 pm73 °FPassing clouds.3 mph83%29.92 "HgN/A
11:00 pm75 °FClear.5 mph74%29.95 "HgN/A
10:30 pm73 °FThundershowers. Passing clouds.14 mph74%29.95 "HgN/A
10:24 pm75 °FThundershowers. Partly cloudy.15 mph69%29.95 "HgN/A
10:01 pm81 °FStrong thunderstorms. Partly cloudy.6 mph51%29.95 "Hg4 mi
9:36 pm82 °FThunderstorms. Passing clouds.6 mph45%29.92 "HgN/A
9:00 pm84 °FPassing clouds.8 mph40%29.92 "HgN/A
8:30 pm86 °FPassing clouds.9 mph35%29.92 "HgN/A
8:00 pm88 °FThundershowers. Scattered clouds.17 mph33%29.92 "HgN/A
7:48 pm91 °FScattered clouds.17 mph30%29.92 "HgN/A
7:30 pm93 °FSunny.12 mph28%29.89 "HgN/A
6:30 pm97 °FSunny.12 mph22%29.86 "HgN/A
6:00 pm99 °FSunny.15 mph22%29.86 "HgN/A
5:30 pm97 °FSunny.15 mph22%29.89 "HgN/A
5:00 pm99 °FSunny.10 mph21%29.89 "HgN/A
4:30 pm100 °FSunny.13 mph17%29.89 "HgN/A
4:00 pm99 °FSunny.15 mph22%29.89 "HgN/A
3:30 pm97 °FScattered clouds.14 mph23%29.92 "HgN/A
3:00 pm99 °FSunny.15 mph24%29.92 "HgN/A
2:30 pm97 °FScattered clouds.10 mph25%29.95 "HgN/A
2:00 pm95 °FSunny.12 mph28%29.95 "HgN/A
Weather by CustomWeather, © 2019

See weather overview